Location: Ashton River Estates
(39.1762°N, 77.0261°W)
Time: 00:12:21
(UTC+00:00)

Cosmos 44 Rocket - Pass Details

Date: 29 October 2020
Orbit: 642 x 748 km, 65.1° (Epoch: 03 December)

Event Time Altitude Azimuth Distance (km) Brightness Sun altitude
Rises 23:05:31 0° 192° (SSW) 2,960 6.8 -11.3°
Reaches altitude 10° 23:07:52 10° 186° (S) 2,066 5.9 -11.8°
Maximum altitude 23:12:18 44° 115° (ESE) 933 3.6 -12.6°
Enters shadow 23:16:15 14° 46° (NE) 1,902 5.1 -13.4°
